TimeCDT,TemperatureF,Dew PointF,Humidity,Sea Level PressureIn,VisibilityMPH,Wind Direction,Wind SpeedMPH,Gust SpeedMPH,PrecipitationIn,Events,Conditions,WindDirDegrees,DateUTC
12:53 AM,34.0,18.0,52,30.34,10.0,SSE,5.8,-,N/A,,Overcast,160,2013-04-21 05:53:00
1:53 AM,34.0,19.9,56,30.34,10.0,SSE,4.6,-,N/A,,Overcast,150,2013-04-21 06:53:00
2:53 AM,34.0,21.0,59,30.33,10.0,South,3.5,-,N/A,,Overcast,170,2013-04-21 07:53:00
3:15 AM,33.8,24.8,70,30.32,2.5,SSE,4.6,-,0.00,Snow,Light Snow,150,2013-04-21 08:15:00
3:23 AM,33.8,26.6,75,30.32,1.2,SSE,4.6,-,0.00,Snow,Light Snow,150,2013-04-21 08:23:00
3:33 AM,33.8,28.4,81,30.31,2.0,ESE,4.6,-,0.00,Snow,Light Snow,110,2013-04-21 08:33:00
3:45 AM,33.8,30.2,87,30.31,1.8,ESE,5.8,-,0.01,Snow,Light Snow,110,2013-04-21 08:45:00
3:53 AM,33.1,30.0,89,30.32,1.8,ESE,5.8,-,0.01,Snow,Light Snow,110,2013-04-21 08:53:00
3:59 AM,33.8,30.2,87,30.30,2.5,ESE,8.1,-,0.00,Snow,Light Snow,120,2013-04-21 08:59:00
4:08 AM,33.8,30.2,87,30.30,4.0,ESE,8.1,-,0.00,Snow,Light Snow,120,2013-04-21 09:08:00
4:53 AM,34.0,32.0,92,30.31,5.0,ESE,6.9,-,0.00,Snow,Light Snow,120,2013-04-21 09:53:00
5:30 AM,33.8,30.2,87,30.29,10.0,ESE,10.4,-,0.00,,Overcast,120,2013-04-21 10:30:00
5:53 AM,34.0,30.9,89,30.30,10.0,ESE,10.4,-,0.00,,Overcast,120,2013-04-21 10:53:00
6:53 AM,34.0,30.9,89,30.30,10.0,SE,12.7,-,N/A,,Overcast,130,2013-04-21 11:53:00
7:53 AM,35.1,30.9,85,30.29,10.0,SE,16.1,24.2,N/A,,Overcast,130,2013-04-21 12:53:00
8:03 AM,35.6,30.2,81,30.27,10.0,SE,17.3,-,0.00,Rain,Light Rain,130,2013-04-21 13:03:00
8:53 AM,36.0,32.0,86,30.27,10.0,SE,13.8,23.0,0.00,,Overcast,140,2013-04-21 13:53:00
9:16 AM,35.6,32.0,87,30.24,10.0,SE,15.0,25.3,N/A,,Overcast,140,2013-04-21 14:16:00
9:53 AM,36.0,32.0,86,30.25,9.0,SE,15.0,24.2,0.00,Rain,Light Rain,140,2013-04-21 14:53:00
10:53 AM,37.9,34.0,86,30.24,10.0,SSE,21.9,28.8,0.00,,Overcast,150,2013-04-21 15:53:00
11:09 AM,39.2,33.8,81,30.22,10.0,SSE,25.3,31.1,N/A,,Overcast,150,2013-04-21 16:09:00
11:53 AM,39.0,33.1,79,30.22,10.0,SSE,24.2,32.2,N/A,,Overcast,150,2013-04-21 16:53:00
12:53 PM,42.1,34.0,73,30.17,10.0,SE,15.0,24.2,N/A,,Overcast,140,2013-04-21 17:53:00
1:53 PM,44.1,35.1,71,30.13,10.0,SSE,21.9,29.9,N/A,,Overcast,150,2013-04-21 18:53:00
2:53 PM,46.0,37.0,71,30.11,10.0,SSE,18.4,29.9,N/A,,Mostly Cloudy,160,2013-04-21 19:53:00
3:53 PM,48.9,39.0,69,30.09,10.0,SSE,15.0,23.0,N/A,,Overcast,160,2013-04-21 20:53:00
4:30 PM,50.0,39.2,66,30.05,10.0,SSE,16.1,-,N/A,Rain,Light Rain,150,2013-04-21 21:30:00
4:53 PM,50.0,39.9,68,30.06,10.0,SSE,20.7,27.6,0.00,,Overcast,150,2013-04-21 21:53:00
5:53 PM,46.9,43.0,86,30.05,5.0,SSE,12.7,-,0.01,Rain,Light Rain,160,2013-04-21 22:53:00
6:18 PM,46.4,44.6,93,30.03,2.5,SSE,17.3,-,0.05,Rain,Light Rain,150,2013-04-21 23:18:00
6:28 PM,46.4,44.6,93,30.04,3.0,SSE,13.8,-,0.07,Rain,Rain,150,2013-04-21 23:28:00
6:38 PM,46.4,44.6,93,30.04,2.5,SSE,15.0,-,0.09,Rain,Rain,150,2013-04-21 23:38:00
6:53 PM,46.9,45.0,93,30.05,2.5,SSE,13.8,-,0.12,Rain,Light Rain,150,2013-04-21 23:53:00
7:02 PM,46.4,44.6,93,30.04,3.0,SSE,11.5,-,0.01,Rain,Light Rain,150,2013-04-22 00:02:00
7:17 PM,46.4,44.6,93,30.03,2.5,SSE,10.4,-,0.04,Rain,Light Rain,150,2013-04-22 00:17:00
7:26 PM,46.4,44.6,93,30.03,3.0,South,9.2,-,0.04,Rain,Light Rain,180,2013-04-22 00:26:00
7:53 PM,46.0,45.0,96,30.05,4.0,SSE,9.2,-,0.06,Rain,Light Rain,160,2013-04-22 00:53:00
8:20 PM,46.4,44.6,93,30.06,7.0,SSW,5.8,-,0.00,Rain,Light Rain,200,2013-04-22 01:20:00
8:33 PM,48.2,46.4,93,30.06,6.0,Calm,Calm,-,0.00,Rain,Light Rain,0,2013-04-22 01:33:00
8:48 PM,46.4,44.6,93,30.07,8.0,South,6.9,-,0.00,,Overcast,190,2013-04-22 01:48:00
8:53 PM,48.0,45.0,89,30.08,9.0,WSW,6.9,-,0.00,,Overcast,240,2013-04-22 01:53:00
9:39 PM,48.2,44.6,87,30.09,10.0,West,9.2,-,0.00,,Overcast,260,2013-04-22 02:39:00
9:53 PM,46.9,44.1,90,30.11,10.0,WSW,6.9,-,0.00,,Overcast,250,2013-04-22 02:53:00
10:23 PM,46.4,42.8,87,30.11,10.0,WNW,12.7,-,N/A,,Overcast,290,2013-04-22 03:23:00
10:53 PM,44.1,39.0,82,30.14,10.0,West,11.5,-,N/A,,Overcast,280,2013-04-22 03:53:00
11:53 PM,42.1,37.0,82,30.15,10.0,WNW,9.2,-,N/A,,Overcast,290,2013-04-22 04:53:00